Rogers, AR

1:02 PM CDT on September 21, 2017 (GMT -0500)
Rogers Municipal-Carter

Weather History for KROG - October, 2012

Change the Weather History Date:

Thursday, October 18, 2012

  Actual Average Record
Temperature  
Mean Temperature 52 °F -  
Max Temperature 62 °F 66 °F 87 °F (2005)
Min Temperature 43 °F 46 °F 33 °F (1996)
Degree Days  
Heating Degree Days 13    
Growing Degree Days 2 (Base 50)    
Moisture  
Dew Point 30 °F    
Average Humidity 43    
Maximum Humidity 76    
Minimum Humidity 25    
Precipitation  
Precipitation 0.00 in - - ()
Sea Level Pressure  
Sea Level Pressure 29.80 in    
Wind  
Wind Speed 11 mph (WSW)    
Max Wind Speed 26 mph    
Max Gust Speed 33 mph    
Visibility 9 miles    
Events      
Averages and records for this station are not official NWS values.
T = Trace of Precipitation, MM = Missing Value Source: NWS Daily Summary

Daily Weather History Graph

Daily Weather History Graph

Search for Another Location

Airport or City:

Trip Planner

Search our weather history database for the weather conditions in past years. The results will help you decide how hot, cold, wet, or windy it might be!

Date:

Astronomy

Oct. 18, 2012 Rise Set
Actual Time 7:26 AM CDT 6:35 PM CDT
Civil Twilight 7:00 AM CDT 7:01 PM CDT
Nautical Twilight 6:30 AM CDT 7:31 PM CDT
Astronomical Twilight 6:00 AM CDT 8:01 PM CDT
Moon 11:03 AM CDT (10/18) 9:16 PM CDT (10/18)
Length of Visible Light 12h 01m
Length of Day
11h 08m
Waxing Crescent, 14% of the Moon is Illuminated
Oct 18
Waxing Crescent
Oct 21
First Quarter
Oct 29
Full
Nov 6
Last Quarter
Nov 13
New

Hourly Weather History & Observations

Time (CDT) Temp. Windchill Dew Point Humidity Pressure Visibility Wind Dir Wind Speed Gust Speed Precip Events Conditions
12:57 AM 51.1 °F - 39.9 °F 66% 29.78 in 10.0 mi West 6.9 mph - N/A   Clear
1:57 AM 48.0 °F - 39.0 °F 71% 29.79 in 10.0 mi SW 6.9 mph - N/A   Clear
2:57 AM 48.0 °F - 37.9 °F 68% 29.79 in 10.0 mi WSW 8.1 mph - N/A   Clear
5:57 AM 44.1 °F 39.5 °F 36.0 °F 73% 29.81 in 10.0 mi SW 8.1 mph - N/A   Clear
6:57 AM 43.0 °F 38.2 °F 36.0 °F 76% 29.83 in 10.0 mi SW 8.1 mph - N/A   Clear
7:57 AM 46.0 °F 41.4 °F 33.1 °F 61% 29.85 in 10.0 mi West 9.2 mph - N/A   Clear
8:57 AM 48.9 °F - 33.1 °F 54% 29.85 in 10.0 mi West 10.4 mph - N/A   Clear
9:57 AM 53.1 °F - 33.1 °F 47% 29.86 in 10.0 mi WNW 11.5 mph 19.6 mph N/A   Clear
11:57 AM 57.0 °F - 28.0 °F 33% 29.84 in 10.0 mi West 18.4 mph 28.8 mph N/A   Clear
12:57 PM 59.0 °F - 27.0 °F 29% 29.82 in 10.0 mi West 19.6 mph 28.8 mph N/A   Clear
1:57 PM 61.0 °F - 27.0 °F 27% 29.80 in 10.0 mi West 26.5 mph 33.4 mph N/A   Clear
2:57 PM 61.0 °F - 28.0 °F 29% 29.78 in 10.0 mi West 20.7 mph 27.6 mph N/A   Clear
3:57 PM 61.0 °F - 25.0 °F 25% 29.78 in 10.0 mi WSW 21.9 mph 33.4 mph N/A   Clear
5:57 PM 60.1 °F - 26.1 °F 27% 29.77 in 10.0 mi West 17.3 mph 24.2 mph N/A   Clear
6:57 PM 57.9 °F - 27.0 °F 31% 29.78 in 10.0 mi West 9.2 mph - N/A   Scattered Clouds
7:57 PM 55.9 °F - 28.0 °F 34% 29.79 in 10.0 mi WSW 8.1 mph - N/A   Overcast
8:57 PM 57.0 °F - 28.9 °F 34% 29.79 in 10.0 mi WSW 11.5 mph - N/A   Overcast
9:57 PM 57.9 °F - 27.0 °F 31% 29.78 in 5.0 mi West 13.8 mph 19.6 mph N/A   Haze
10:41 PM 57.2 °F - 26.6 °F 31% 29.79 in 4.0 mi West 11.5 mph - N/A   Haze
10:47 PM 57.2 °F - 26.6 °F 31% 29.79 in 4.0 mi West 11.5 mph - N/A   Haze
10:57 PM 57.0 °F - 27.0 °F 32% 29.78 in 4.0 mi West 11.5 mph 18.4 mph N/A   Haze
11:57 PM 57.0 °F - 27.0 °F 32% 29.77 in 4.0 mi West 9.2 mph - N/A   Haze